星链-34180 (STARLINK-34180)

导读

STARLINK-34180是美国SpaceX星链项目Group 12-15批次的V2-mini卫星,于2025年5月21日从卡纳维拉尔角发射。它搭载相控阵天线,支持E频段回传,容量较前代提升4倍,还配备新型氩霍尔推力器,可支持直接手机直连服务,为全球提供更高带宽、更可靠的高速互联网接入。

基本信息
目录编号:
64081
目录名称:
STARLINK-34180
国际标识:
2025-107T
轨道中心:
EARTH
卫星名称:
星链-34180
卫星全名:
星链-34180 (STARLINK-34180)
卫星状态:
在轨 (已飞行389 天)
发射日期:
2025-05-21 UTC
国别 :
美国 (US)
星等 :
--
轨道信息
数据来源 国际轨道数据
星历时间: 2026-06-13T15:30:23+0800
18小时前
查看轨道信息
半长轴: 6861.136km
偏心率: 0.0004032
轨道倾角: 43.006°
近地点辐角 267.963°
升交点赤经 21.618°
平近点角 92.076°
近地点: 480.232km
远地点: 485.766km
周期: 94.266分钟
每日圈数: 15.27597
详细信息
固有亮度:
5
最大亮度:
2.5
卫星平台:
Starlink V1.0
覆盖范围:
全球
运营商:
太空探索技术公司
运营商所在国:
美国
制造商(研发单位):
太空探索技术公司
制造商所在国:
美国
使用方式:
暂无
卫星简介
Starlink 计划是 SpaceX 推出的全球卫星互联网项目,通过发射低轨道卫星,为全球尤其是偏远地区提供高速、低延迟的互联网服务。自 2019 年起,Starlink 已部署数千颗卫星,旨在缩小全球数字鸿沟,推动互联网普及。该项目还为军事、航空等行业提供通信支持,带来广泛经济效益。
2D轨道图
3D轨道图
轨道高度分析图
轨道倾角分析图
轨道综合分析图
查看轨道综合分析图